User: anonymous
Location: Unspecified
(0.0000°N, 0.0000°E)
Time: 14:00:00
(UTC+02:00)
Language:

ARIANE 5 R/B - Orbit

View from above orbital plane
View from above orbital plane
View from above satellite
View from above satellite

Ground track
Ground track

The orbit data is extracted from the following two-line orbital elements,

1 29646U 06054D   14238.90437471  .00007862  00000-0  19680-2 0  7172
2 29646 002.7453 073.8943 7157183 099.6179 340.9518 02.43900305 66241
Epoch (UTC): 26 August 2014 21:42:17
Eccentricity: 0.7157183
inclination: 2.7453°
perigee height: 249 km
apogee height: 33619 km
right ascension of ascending node: 73.8943°
argument of perigee: 99.6179°
revolutions per day: 2.43900305
mean anomaly at epoch: 340.9518°
orbit number at epoch: 6624

The dashed part of the orbit path shows where the satellite is in the earth's shadow,  

DLR